Temp
99 100 98 95 96 97 96 95 95 95 94 93 93 94 95 95 93 92 91 88 87 86 87 87 87 87 87 88 88 88 89 89 89 89 89 90 91 90 90 91 91 90 93 93 91 92 92 93 93 94 93 92 92 91 91 91 91 91 91 90 90 91 91
96 98 98 98 96 96 96 95 94 95 95 94 93 93 95 94 93 92 90 89 88 87 87 87 87 87 87 88 88 88 88 88 89 89 90 90 90 91 92 91 91 90 91 93 93 92 93 93 93 92 93 92 92 91 92 91 90 90 91 90 90 90 90
98 98 98 96 95 93 96 96 95 96 95 96 95 94 94 92 92 91 91 90 88 88 88 88 87 88 88 88 88 88 88 89 89 90 90 91 91 94 93 92 92 93 94 94 94 94 94 93 92 92 93 92 93 91 91 91 90 91 91 90 90 90 89
96 97 97 96 96 96 97 97 96 97 97 97 96 95 94 92 94 93 92 91 89 88 87 88 89 89 89 88 88 87 88 88 89 90 91 92 92 92 92 92 91 93 93 93 95 95 96 93 93 92 92 92 91 92 92 91 92 91 91 90 90 91 90
98 99 100 99 99 95 96 97 97 95 97 99 97 95 95 95 96 95 94 93 93 90 91 91 92 91 90 90 91 90 89 89 89 90 91 92 91 92 92 93 93 94 94 95 94 93 92 92 93 92 92 91 92 92 91 92 92 91 90 90 90 91 91
100 99 99 99 99 99 99 99 99 99 98 99 98 97 97 98 97 97 96 94 93 93 92 91 91 90 89 91 91 91 90 89 89 89 90 91 91 92 92 93 94 94 96 94 95 95 94 93 93 93 92 93 93 94 94 92 92 93 91 90 90 91 92
100 100 100 100 100 100 101 100 101 100 100 101 101 99 99 99 98 97 97 96 95 92 92 92 92 92 90 91 90 90 89 90 89 90 91 92 92 92 92 92 93 95 96 94 94 94 94 93 92 93 92 93 92 94 92 91 91 91 90 89 89 89 90
101 101 102 102 103 103 100 99 101 102 100 101 100 100 99 99 99 98 97 97 96 96 95 94 93 91 90 91 91 91 90 91 92 91 91 92 92 92 93 93 93 94 94 95 94 94 95 93 94 94 93 94 92 92 93 92 90 93 91 89 89 89 92
103 102 103 103 104 104 102 101 101 101 98 98 99 98 99 99 99 98 98 98 97 96 95 97 96 94 91 91 91 90 91 91 91 91 91 93 93 95 95 95 94 94 93 95 96 94 95 94 95 92 92 92 92 91 92 91 92 92 91 90 89 89 91
102 101 101 104 103 105 103 103 101 99 97 96 96 96 97 98 98 99 99 99 99 97 97 97 97 96 92 92 92 92 91 91 91 93 94 94 94 95 96 97 95 95 94 95 97 95 94 95 94 93 91 92 92 91 91 91 92 92 92 91 90 90 89
102 100 100 103 102 102 103 103 98 95 96 93 95 98 97 97 98 99 98 99 99 98 99 98 97 97 94 94 94 93 91 92 93 93 93 94 96 96 97 98 98 95 95 96 97 97 94 93 94 92 91 92 92 91 91 92 92 91 92 92 92 91 91
97 97 98 99 100 101 101 99 97 96 95 94 96 98 95 95 98 99 99 99 100 100 99 99 100 98 95 95 94 92 92 91 92 93 94 95 97 97 98 99 98 97 96 97 96 97 97 94 94 93 91 91 92 92 91 91 91 90 91 94 93 92 92
99 97 97 99 97 99 98 98 96 96 95 97 98 98 98 98 98 99 97 98 100 100 99 98 98 96 95 95 95 92 91 91 92 93 95 95 96 97 98 98 99 99 97 97 97 97 98 96 94 94 93 92 93 93 92 91 92 90 90 92 92 92 91
93 98 97 97 97 97 96 97 96 95 95 96 97 98 98 99 99 98 97 98 99 101 101 100 98 96 94 94 93 91 91 91 92 94 94 95 93 95 97 98 98 97 97 96 96 97 98 98 96 95 95 93 93 93 93 91 91 91 90 91 92 93 92
96 99 98 98 95 95 95 96 95 94 95 95 97 97 98 98 98 97 97 98 98 101 100 98 97 95 95 93 92 91 91 91 92 93 93 94 93 94 95 96 97 97 96 95 96 98 99 99 98 95 94 94 92 93 94 93 91 92 91 90 90 92 93
96 97 99 99 97 97 94 95 95 94 94 93 95 95 98 97 96 97 97 98 99 98 100 99 96 94 94 93 92 91 91 91 91 91 92 92 92 92 94 96 96 98 97 96 96 95 95 95 97 97 95 94 93 93 94 93 93 87 79 82 90 91 94
92 93 94 94 94 94 95 95 96 95 93 92 93 95 96 96 96 98 100 99 100 98 100 100 95 95 94 92 92 91 91 90 90 91 90 91 92 92 93 94 95 95 94 94 94 94 93 95 96 97 96 95 95 93 93 93 94 78 71 73 77 89 91
91 90 92 93 93 93 93 94 95 95 94 96 96 95 96 94 97 97 98 99 99 101 102 100 97 95 92 92 92 91 90 90 90 89 90 90 90 91 91 94 94 93 93 94 94 92 96 95 95 94 97 97 96 95 94 94 84 70 70 71 71 78 90
90 92 91 88 90 91 94 95 93 94 98 98 97 97 98 98 98 95 96 97 98 99 100 100 99 94 92 92 91 90 90 90 89 89 89 90 90 90 90 91 92 93 93 94 94 94 92 92 94 94 95 96 93 95 95 95 78 67 68 69 69 69 81
86 86 87 88 89 91 92 91 91 94 97 98 100 101 100 99 99 98 99 100 99 98 97 96 96 94 92 91 91 90 90 89 89 89 89 90 90 90 90 90 90 94 96 95 93 91 92 94 92 93 92 93 94 92 95 95 75 66 65 67 66 68 73
82 82 82 83 85 88 88 89 90 92 93 96 99 101 101 100 101 100 99 99 98 98 95 96 95 92 92 91 91 90 90 89 89 88 89 89 90 89 89 90 90 92 94 95 94 91 90 92 92 92 93 94 95 94 95 96 68 64 63 64 64 65 70
80 81 81 82 82 83 86 90 91 93 93 96 97 100 103 101 102 101 99 100 99 98 96 95 93 93 91 90 91 90 90 90 89 88 89 89 89 89 88 89 89 89 92 93 95 93 93 93 94 93 93 93 94 95 93 95 62 64 62 63 63 63 80
80 80 81 81 84 85 87 90 91 93 94 95 96 98 101 103 103 101 100 99 100 97 97 96 93 92 90 90 92 91 91 91 90 89 89 89 89 88 89 88 89 90 92 92 94 93 92 92 94 92 94 93 93 93 91 95 68 61 60 61 61 67 84
79 79 80 81 81 84 87 91 93 94 96 96 96 97 99 103 102 99 97 97 99 98 97 96 93 92 90 91 92 92 91 91 90 89 89 89 89 89 90 91 91 91 91 92 93 95 94 94 93 94 93 94 93 94 93 96 73 58 59 60 58 71 84
77 77 78 79 80 82 87 90 91 92 93 95 96 97 98 101 102 101 97 96 99 98 95 94 92 92 91 91 93 92 92 92 90 90 90 89 90 91 90 90 90 92 92 93 94 94 95 94 93 94 93 96 96 86 92 96 80 57 59 58 57 71 85
72 73 76 78 81 84 86 88 89 90 93 95 94 97 98 102 101 97 95 96 99 97 95 93 92 92 92 93 92 92 92 92 90 90 91 90 90 91 90 91 92 92 92 93 94 94 96 95 93 93 94 96 97 96 95 94 91 68 58 57 56 63 84
72 73 75 77 79 78 83 89 90 92 94 95 95 98 100 101 99 95 93 93 94 93 95 94 94 92 92 92 93 94 93 93 92 91 92 92 91 92 92 93 93 93 91 93 94 93 92 94 94 94 93 96 96 97 97 97 94 75 57 56 56 59 70
70 72 76 76 77 79 83 90 91 92 95 95 96 97 98 96 94 92 92 92 92 94 97 95 93 92 92 91 92 94 94 93 92 92 93 92 91 90 90 91 92 92 91 93 92 90 90 90 92 94 94 95 96 96 95 93 86 87 59 57 55 57 62
66 68 70 71 76 81 84 87 90 93 94 97 99 97 96 96 93 92 91 91 92 96 96 95 94 92 91 91 92 92 92 92 92 91 95 93 91 90 89 90 90 90 90 90 90 89 89 89 90 91 92 93 94 95 95 94 89 74 70 57 55 55 57
65 67 69 71 77 80 83 84 89 91 93 96 96 95 95 94 92 91 91 91 94 96 96 94 93 91 91 90 91 92 92 93 93 92 93 92 90 90 89 89 90 90 90 89 89 89 88 89 89 90 91 92 93 94 96 94 95 75 68 64 55 54 56
63 64 65 67 72 77 81 84 86 88 91 94 94 94 94 95 92 91 90 92 93 93 94 93 92 90 90 91 91 91 93 93 92 93 94 93 91 89 89 89 89 88 89 88 88 88 88 88 89 88 89 90 91 93 94 95 95 89 71 62 57 55 54
64 65 66 69 72 75 78 82 86 87 87 91 94 93 93 94 93 90 90 93 93 94 94 92 90 89 89 91 91 92 94 93 93 93 94 93 92 90 90 89 90 89 88 88 88 89 88 88 89 89 88 89 92 92 93 93 94 92 81 68 63 60 56
62 62 63 65 68 71 75 80 83 87 88 90 92 92 93 93 93 92 92 92 94 94 93 91 90 88 89 90 92 92 93 92 93 93 92 92 92 92 91 91 91 89 87 88 90 89 89 88 88 89 89 89 91 92 92 92 93 94 89 80 77 75 69
61 62 65 65 67 70 73 78 81 84 85 87 90 92 92 92 93 93 92 94 94 95 92 89 89 90 90 92 92 92 93 92 88 89 93 92 93 91 91 92 92 91 88 89 90 90 89 90 89 89 91 91 92 92 93 92 94 93 93 87 85 83 81
61 63 64 64 67 69 70 74 79 80 84 84 86 89 90 91 92 92 91 92 93 92 90 89 88 89 90 91 92 91 91 92 92 93 93 92 91 92 93 94 94 90 91 94 94 93 92 91 92 92 95 95 92 92 92 92 91 94 81 90 74 83 86
61 63 63 65 67 68 69 73 77 78 78 82 86 86 88 90 91 92 93 92 92 92 89 88 88 89 89 91 91 91 92 92 93 92 92 93 92 92 83 58 53 70 89 92 80 73 73 73 87 89 96 94 94 94 92 92 92 76 68 61 62 62 65
61 62 63 65 65 66 68 72 75 77 78 79 83 84 84 85 87 89 91 91 92 91 90 89 88 89 90 90 91 90 91 91 92 92 91 92 91 91 87 86 76 49 43 54 65 66 50 44 46 50 57 77 93 74 55 62 58 57 56 57 59 57 57
62 62 64 64 64 65 68 71 72 73 74 78 79 81 83 85 86 87 89 90 91 91 89 89 89 89 91 91 91 89 89 91 91 90 91 92 92 90 88 87 82 76 52 44 48 46 43 44 44 46 49 49 60 80 81 59 51 51 52 52 54 55 54
MSLP
1002.26 1002.22 1003.18 1004.02 1003.78 1003.46 1003.66 1004.06 1004.38 1004.82 1005.22 1005.74 1006.14 1006.34 1006.54 1006.86 1007.18 1007.62 1008.34 1008.94 1009.58 1010.14 1010.30 1010.50 1010.90 1011.30 1011.82 1012.18 1012.46 1012.74 1012.98 1013.38 1013.66 1014.02 1014.30 1014.46 1014.54 1014.82 1015.14 1015.22 1015.46 1015.54 1015.50 1015.82 1015.98 1016.06 1016.02 1015.98 1016.18 1016.34 1016.46 1016.78 1017.06 1017.18 1017.34 1017.42 1017.62 1017.70 1017.82 1017.94 1018.10 1018.22 1018.38
1002.46 1002.18 1002.62 1003.30 1004.02 1003.62 1003.34 1003.54 1004.06 1004.38 1004.78 1005.18 1005.62 1005.94 1006.06 1006.34 1006.70 1007.26 1007.74 1008.26 1008.82 1009.30 1009.70 1010.06 1010.50 1010.86 1011.26 1011.66 1011.98 1012.34 1012.78 1013.02 1013.26 1013.50 1013.78 1014.06 1014.18 1014.34 1014.46 1014.78 1014.94 1015.22 1015.26 1015.18 1015.34 1015.54 1015.62 1015.86 1015.98 1016.26 1016.42 1016.62 1016.86 1016.94 1017.14 1017.30 1017.50 1017.66 1017.78 1017.98 1018.22 1018.30 1018.30
1001.58 1001.86 1002.02 1002.86 1003.86 1004.50 1003.18 1003.26 1003.66 1003.82 1004.22 1004.66 1005.14 1005.50 1005.62 1005.82 1006.10 1006.58 1007.18 1007.86 1008.50 1008.90 1009.18 1009.62 1009.94 1010.30 1010.70 1011.14 1011.66 1012.06 1012.34 1012.62 1012.98 1013.30 1013.58 1013.74 1013.94 1013.98 1014.10 1014.26 1014.50 1014.70 1014.86 1014.86 1014.94 1015.22 1015.34 1015.66 1015.82 1015.94 1016.22 1016.46 1016.66 1016.86 1016.98 1017.22 1017.34 1017.50 1017.66 1017.82 1018.10 1018.22 1018.38
1001.54 1001.66 1001.86 1002.14 1002.50 1002.94 1002.74 1002.70 1003.14 1003.38 1003.54 1003.90 1004.38 1004.82 1005.18 1005.54 1005.66 1006.10 1006.58 1007.14 1007.94 1008.42 1008.98 1009.14 1009.50 1009.90 1010.26 1010.78 1011.22 1011.62 1011.98 1012.18 1012.46 1012.74 1012.98 1013.06 1013.42 1013.58 1013.82 1014.06 1014.22 1014.22 1014.62 1014.78 1014.66 1014.82 1014.98 1015.38 1015.70 1015.86 1016.02 1016.34 1016.54 1016.58 1016.82 1017.02 1017.14 1017.34 1017.50 1017.74 1017.98 1017.98 1018.14
1000.38 1000.70 1000.94 1001.38 1001.94 1003.18 1003.02 1002.50 1002.74 1002.94 1003.02 1003.14 1003.54 1004.10 1004.58 1005.02 1005.38 1005.78 1006.22 1006.54 1007.02 1007.62 1007.86 1008.30 1008.66 1009.14 1009.58 1010.02 1010.50 1010.90 1011.34 1011.70 1012.06 1012.30 1012.54 1012.58 1012.78 1013.10 1013.50 1013.78 1013.90 1014.06 1014.10 1014.30 1014.38 1014.70 1014.94 1015.30 1015.54 1015.74 1015.98 1016.10 1016.34 1016.46 1016.66 1016.78 1016.98 1017.14 1017.38 1017.54 1017.86 1017.78 1017.98
999.78 1000.06 1000.50 1000.86 1001.06 1001.50 1001.82 1001.78 1001.86 1002.18 1002.50 1002.86 1003.22 1003.78 1004.10 1004.46 1004.90 1005.42 1005.74 1006.26 1006.70 1007.06 1007.54 1008.02 1008.38 1008.74 1009.26 1009.42 1009.78 1010.26 1010.78 1011.22 1011.54 1011.86 1012.14 1012.30 1012.50 1012.86 1013.14 1013.30 1013.46 1013.70 1013.86 1014.06 1014.06 1014.34 1014.66 1015.02 1015.22 1015.42 1015.74 1015.86 1016.02 1016.18 1016.34 1016.62 1016.78 1016.90 1017.22 1017.42 1017.66 1017.66 1017.74
998.86 999.14 999.58 999.98 1000.22 1000.78 1001.02 1001.34 1001.30 1001.50 1001.70 1002.02 1002.38 1003.06 1003.58 1004.02 1004.54 1004.90 1005.30 1005.86 1006.18 1006.74 1007.06 1007.46 1007.66 1008.06 1008.54 1008.82 1009.30 1009.82 1010.46 1010.82 1011.22 1011.54 1011.70 1011.94 1012.10 1012.46 1012.70 1012.90 1012.98 1013.22 1013.26 1013.50 1013.86 1013.98 1014.46 1014.82 1014.94 1015.10 1015.38 1015.58 1015.78 1015.90 1016.06 1016.38 1016.66 1016.70 1016.98 1017.34 1017.58 1017.58 1017.58
998.06 998.42 998.62 999.02 999.34 999.82 1000.66 1001.34 1000.98 1000.82 1001.30 1001.62 1002.14 1002.70 1003.26 1003.34 1003.90 1004.42 1004.74 1004.90 1005.42 1005.94 1006.42 1006.78 1007.18 1007.50 1007.94 1008.30 1008.70 1009.30 1009.86 1010.22 1010.58 1010.98 1011.30 1011.66 1011.82 1012.14 1012.30 1012.54 1012.70 1012.74 1012.98 1013.34 1013.54 1013.66 1014.06 1014.42 1014.50 1014.66 1014.94 1015.22 1015.50 1015.66 1015.78 1016.02 1016.34 1016.46 1016.70 1017.14 1017.42 1017.54 1017.34
997.30 997.46 997.90 998.22 998.46 998.86 999.70 1000.14 1000.66 1000.38 1000.98 1001.42 1001.66 1002.10 1002.62 1003.02 1003.38 1003.74 1004.06 1004.42 1004.78 1005.18 1005.62 1005.74 1006.22 1006.70 1007.30 1007.82 1008.34 1008.82 1009.18 1009.62 1010.14 1010.54 1010.94 1011.26 1011.42 1011.74 1011.82 1012.06 1012.30 1012.34 1012.78 1012.98 1013.14 1013.34 1013.54 1013.90 1014.10 1014.34 1014.62 1014.90 1015.10 1015.42 1015.62 1015.82 1016.02 1016.18 1016.42 1016.74 1017.10 1017.34 1017.26
997.14 997.62 997.54 997.54 997.74 998.18 998.74 999.22 999.98 1000.34 1001.06 1001.46 1001.66 1001.98 1002.30 1002.42 1002.70 1003.14 1003.58 1003.86 1004.18 1004.70 1004.98 1005.22 1005.58 1006.10 1006.78 1007.30 1007.78 1008.22 1008.78 1009.26 1009.54 1009.98 1010.38 1010.82 1010.86 1011.18 1011.22 1011.38 1011.78 1011.94 1012.34 1012.58 1012.58 1013.10 1013.26 1013.34 1013.70 1014.02 1014.42 1014.70 1014.90 1015.14 1015.38 1015.58 1015.74 1015.90 1016.10 1016.42 1016.66 1016.94 1017.14
997.06 997.18 997.42 997.54 998.02 998.22 998.18 998.78 1000.34 1000.98 1000.86 1001.06 1001.22 1001.26 1001.74 1002.18 1002.42 1002.70 1003.06 1003.22 1003.58 1003.94 1004.18 1004.58 1004.78 1005.46 1006.18 1006.70 1007.30 1007.78 1008.30 1008.74 1008.98 1009.46 1009.82 1010.06 1010.18 1010.50 1010.62 1010.78 1011.14 1011.50 1011.90 1012.10 1012.30 1012.42 1012.94 1013.22 1013.30 1013.70 1014.14 1014.46 1014.62 1014.82 1015.06 1015.22 1015.38 1015.70 1015.82 1015.94 1016.10 1016.38 1016.62
997.94 997.94 997.42 997.94 998.34 998.34 998.38 998.54 999.30 1000.06 1000.54 1000.86 1001.02 1001.14 1001.58 1001.90 1002.10 1002.22 1002.50 1002.86 1002.98 1003.54 1003.82 1004.14 1004.22 1004.82 1005.66 1006.18 1006.78 1007.34 1007.78 1008.14 1008.42 1008.82 1009.14 1009.38 1009.58 1009.82 1010.06 1010.22 1010.54 1010.98 1011.38 1011.58 1011.98 1012.06 1012.38 1012.94 1013.10 1013.34 1013.78 1013.98 1014.14 1014.34 1014.58 1014.74 1014.98 1015.26 1015.46 1015.54 1015.70 1015.98 1016.18
998.06 998.26 998.58 998.66 998.98 998.86 998.78 998.62 999.50 999.90 1000.18 1000.50 1000.74 1000.90 1001.18 1001.58 1001.86 1001.98 1002.22 1002.58 1002.74 1002.90 1003.34 1003.66 1003.98 1004.50 1005.18 1005.66 1006.10 1006.74 1007.26 1007.62 1007.86 1008.06 1008.38 1008.74 1008.98 1009.14 1009.42 1009.74 1009.94 1010.34 1010.90 1011.06 1011.42 1011.74 1011.98 1012.34 1012.78 1012.90 1013.22 1013.58 1013.70 1013.94 1014.18 1014.42 1014.58 1014.86 1015.10 1015.22 1015.30 1015.58 1015.94
999.30 998.98 999.02 999.14 999.26 999.42 999.54 999.34 999.46 999.98 1000.30 1000.50 1000.70 1000.66 1000.78 1001.02 1001.30 1001.62 1001.98 1002.34 1002.46 1002.58 1002.86 1003.18 1003.62 1004.26 1004.82 1005.30 1005.70 1006.18 1006.58 1006.86 1007.10 1007.46 1007.82 1008.14 1008.50 1008.74 1008.90 1009.22 1009.50 1009.82 1010.18 1010.62 1011.10 1011.30 1011.46 1011.74 1012.30 1012.54 1012.74 1013.06 1013.34 1013.46 1013.62 1014.06 1014.34 1014.50 1014.70 1014.90 1014.98 1015.18 1015.50
999.50 998.86 998.98 999.38 999.62 999.58 999.70 999.78 999.74 999.98 1000.22 1000.34 1000.38 1000.62 1000.70 1000.90 1001.18 1001.38 1001.62 1001.82 1002.06 1002.18 1002.38 1002.66 1003.34 1003.94 1004.50 1004.98 1005.34 1005.66 1005.94 1006.34 1006.74 1007.02 1007.46 1007.90 1008.34 1008.58 1008.70 1008.90 1009.14 1009.38 1009.78 1010.26 1010.58 1010.66 1010.82 1010.98 1011.42 1012.14 1012.50 1012.62 1012.94 1013.10 1013.22 1013.58 1013.94 1014.02 1014.26 1014.62 1014.82 1014.82 1015.06
1000.14 999.54 998.90 998.94 999.30 999.50 999.86 999.74 999.78 999.98 1000.18 1000.42 1000.50 1000.62 1000.62 1000.82 1001.06 1001.26 1001.54 1001.70 1001.70 1001.90 1001.94 1002.34 1003.10 1003.66 1004.18 1004.70 1004.94 1005.22 1005.62 1006.06 1006.42 1006.78 1007.14 1007.62 1008.06 1008.38 1008.50 1008.66 1008.90 1009.10 1009.50 1009.90 1010.18 1010.34 1010.50 1010.74 1010.90 1011.42 1012.06 1012.46 1012.66 1012.82 1012.94 1013.10 1013.18 1013.42 1013.74 1013.94 1014.22 1014.54 1014.58
1001.46 1001.06 1000.70 1000.46 1000.22 1000.26 999.86 999.94 999.86 1000.02 1000.30 1000.50 1000.46 1000.42 1000.50 1000.54 1000.70 1000.82 1001.06 1001.30 1001.46 1001.70 1001.54 1001.94 1002.86 1003.42 1003.90 1004.46 1004.66 1005.02 1005.42 1005.90 1006.26 1006.54 1007.02 1007.26 1007.66 1008.06 1008.34 1008.54 1008.66 1008.90 1009.30 1009.62 1009.94 1010.14 1010.34 1010.54 1010.82 1011.02 1011.30 1011.82 1012.18 1012.54 1012.58 1012.58 1012.58 1012.94 1013.42 1013.74 1013.94 1014.06 1014.34
1001.78 1001.58 1001.10 1000.90 1000.78 1000.50 1000.62 1000.66 1000.06 1000.02 1000.26 1000.22 1000.18 1000.18 1000.26 1000.34 1000.42 1000.74 1000.86 1000.82 1001.02 1001.06 1001.10 1001.66 1002.46 1003.22 1003.74 1004.06 1004.46 1004.82 1005.30 1005.62 1005.94 1006.34 1006.74 1007.02 1007.46 1007.74 1008.02 1008.26 1008.58 1008.86 1009.10 1009.42 1009.78 1009.98 1010.02 1010.42 1010.58 1010.74 1010.82 1011.14 1011.54 1011.90 1012.10 1012.14 1012.14 1012.62 1013.10 1013.46 1013.74 1013.86 1013.94
1001.54 1001.10 1001.22 1001.74 1001.38 1001.06 1000.74 1000.66 1000.50 999.98 999.46 999.58 999.78 999.82 999.62 999.62 1000.06 1000.42 1000.34 1000.46 1000.46 1000.62 1001.06 1001.54 1002.14 1002.90 1003.50 1003.78 1004.18 1004.62 1005.06 1005.42 1005.82 1006.14 1006.46 1006.74 1007.06 1007.42 1007.78 1008.14 1008.50 1008.78 1009.02 1009.30 1009.38 1009.62 1010.06 1010.22 1010.38 1010.62 1010.58 1010.70 1011.14 1011.42 1011.42 1011.66 1011.78 1012.38 1012.78 1013.18 1013.50 1013.74 1013.82
1002.62 1002.62 1002.50 1002.06 1001.66 1001.30 1000.74 1000.78 1000.42 999.86 999.30 998.82 998.70 998.82 998.82 998.94 999.34 999.46 999.62 999.90 1000.30 1000.82 1001.06 1001.50 1001.90 1002.54 1003.18 1003.58 1003.94 1004.34 1004.74 1005.18 1005.62 1006.02 1006.18 1006.38 1006.74 1007.14 1007.62 1007.94 1008.30 1008.34 1008.46 1008.82 1009.14 1009.62 1009.86 1009.94 1010.22 1010.30 1010.54 1010.58 1010.74 1010.94 1010.98 1011.10 1011.46 1012.06 1012.54 1012.94 1013.30 1013.54 1013.82
1003.38 1003.26 1003.30 1003.06 1002.66 1002.06 1001.70 1001.38 1000.82 1000.26 999.94 999.54 998.98 998.22 998.30 998.74 998.74 999.10 999.54 999.62 1000.06 1000.30 1000.82 1001.18 1001.70 1002.34 1002.90 1003.38 1003.66 1004.02 1004.42 1004.90 1005.34 1005.78 1006.02 1006.22 1006.50 1006.90 1007.34 1007.66 1007.94 1008.14 1008.22 1008.46 1008.94 1009.38 1009.70 1009.78 1009.98 1010.10 1010.22 1010.38 1010.46 1010.66 1010.86 1010.74 1011.14 1011.74 1012.22 1012.70 1013.06 1013.38 1013.70
1003.78 1003.50 1003.38 1003.06 1002.86 1002.34 1001.78 1001.10 1000.62 1000.18 999.74 998.82 998.66 998.10 997.50 997.94 998.06 998.62 999.14 999.14 999.66 1000.14 1000.54 1000.98 1001.54 1002.10 1002.62 1003.10 1003.30 1003.58 1003.94 1004.42 1005.02 1005.38 1005.66 1006.02 1006.30 1006.70 1007.10 1007.34 1007.66 1008.02 1007.98 1008.18 1008.42 1008.74 1009.06 1009.30 1009.38 1009.74 1009.98 1010.02 1010.18 1010.38 1010.74 1010.54 1011.06 1011.46 1011.94 1012.38 1012.82 1013.30 1013.66
1003.94 1003.70 1003.30 1002.90 1002.30 1001.66 1000.86 1000.22 999.86 999.34 998.86 998.66 998.34 998.14 997.34 996.94 997.38 998.06 998.58 999.10 999.34 999.82 1000.22 1000.62 1001.30 1001.74 1002.18 1002.54 1002.74 1003.10 1003.46 1003.86 1004.46 1004.86 1005.22 1005.62 1006.06 1006.42 1006.74 1007.06 1007.42 1007.62 1007.62 1008.14 1008.18 1008.58 1008.94 1009.10 1009.14 1009.18 1009.46 1009.74 1009.90 1010.18 1010.38 1010.34 1010.86 1011.26 1011.74 1012.18 1012.58 1013.30 1013.42
1003.82 1003.54 1003.18 1002.74 1002.10 1001.26 1000.26 999.38 998.82 998.30 998.06 997.78 997.74 997.54 996.90 996.42 996.82 997.54 998.26 998.70 998.82 999.42 999.94 1000.38 1000.86 1001.10 1001.62 1001.98 1002.10 1002.42 1002.82 1003.26 1003.82 1004.42 1004.78 1005.22 1005.66 1005.98 1006.18 1006.38 1006.70 1007.14 1007.22 1007.74 1007.98 1008.14 1008.30 1008.46 1008.74 1008.74 1008.86 1009.22 1009.50 1009.62 1010.10 1010.02 1010.50 1010.94 1011.42 1011.90 1012.42 1012.66 1012.86
1004.18 1003.78 1003.30 1002.78 1002.26 1001.42 1000.02 998.98 998.54 998.26 997.78 997.30 997.30 996.94 996.62 996.18 996.38 997.22 998.06 998.34 998.46 998.82 999.50 999.90 1000.22 1000.58 1001.06 1001.26 1001.42 1001.82 1002.30 1002.74 1003.30 1003.82 1004.26 1004.74 1005.06 1005.34 1005.78 1006.02 1006.34 1006.50 1006.78 1007.14 1007.38 1007.54 1007.50 1007.86 1008.34 1008.50 1008.54 1008.62 1008.82 1009.10 1009.50 1009.54 1009.94 1010.58 1011.02 1011.54 1012.02 1012.30 1012.30
1004.50 1003.86 1003.14 1002.34 1001.58 1000.58 999.42 998.42 998.22 998.06 997.62 997.18 996.82 996.34 996.18 995.94 996.14 996.90 997.62 997.94 997.98 998.58 999.06 999.18 999.30 999.58 1000.18 1000.78 1001.22 1001.50 1001.90 1002.22 1002.82 1003.26 1003.66 1004.18 1004.54 1004.82 1005.18 1005.38 1005.74 1006.10 1006.50 1006.74 1006.90 1007.26 1007.26 1007.46 1007.86 1008.30 1008.34 1008.22 1008.38 1008.62 1008.90 1009.14 1009.42 1010.18 1010.58 1011.10 1011.58 1011.78 1011.78
1004.70 1004.06 1003.38 1002.46 1001.50 1000.58 999.66 998.38 997.86 997.54 996.94 996.46 996.10 995.94 995.74 995.66 996.10 996.86 997.38 997.74 998.06 998.34 998.18 998.22 998.74 999.50 1000.06 1000.46 1000.78 1001.14 1001.54 1001.82 1002.34 1002.86 1003.10 1003.46 1003.94 1004.30 1004.70 1004.98 1005.30 1005.58 1006.10 1006.50 1006.62 1006.94 1007.26 1007.42 1007.58 1007.90 1008.06 1007.90 1007.94 1008.06 1008.18 1008.38 1008.86 1009.62 1010.14 1010.58 1011.02 1011.34 1011.50
1004.78 1003.94 1002.90 1002.18 1001.38 1000.58 999.62 998.26 997.50 997.14 996.50 995.98 995.82 995.62 995.62 995.66 996.18 996.70 997.26 997.74 998.02 997.70 997.42 997.98 998.58 999.14 999.70 1000.22 1000.50 1000.78 1001.14 1001.50 1001.90 1002.30 1002.70 1003.02 1003.50 1004.10 1004.58 1004.58 1004.78 1005.18 1005.66 1005.98 1006.42 1006.94 1007.30 1007.42 1007.46 1007.62 1007.78 1007.70 1007.66 1007.70 1007.78 1007.74 1008.10 1008.98 1009.98 1010.22 1010.58 1010.90 1011.06
1005.54 1004.78 1003.86 1002.82 1001.58 1000.30 999.54 998.62 997.74 997.02 996.34 995.66 995.30 995.26 995.54 995.66 996.22 996.66 997.02 997.62 997.50 997.14 997.34 997.82 998.30 998.94 999.42 999.90 1000.26 1000.50 1000.82 1001.14 1001.58 1002.10 1002.18 1002.66 1003.10 1003.70 1004.30 1004.46 1004.78 1005.06 1005.38 1005.90 1006.34 1006.78 1007.22 1007.46 1007.50 1007.66 1007.82 1007.74 1007.62 1007.42 1007.46 1007.50 1007.70 1008.30 1009.42 1010.18 1010.34 1010.66 1010.90
1005.66 1004.82 1003.90 1002.90 1001.82 1000.70 999.58 998.86 997.82 997.10 996.06 995.58 995.18 995.22 995.42 995.62 996.26 996.62 997.10 997.38 996.98 997.10 997.34 997.82 998.34 998.86 999.34 999.78 1000.02 1000.26 1000.58 1000.90 1001.26 1001.66 1001.78 1002.26 1002.86 1003.38 1003.98 1004.38 1004.62 1004.90 1005.26 1005.62 1006.14 1006.66 1007.14 1007.30 1007.46 1007.66 1007.82 1007.94 1007.74 1007.38 1007.18 1007.22 1007.38 1008.10 1008.54 1009.62 1010.26 1010.42 1010.58
1006.02 1005.30 1004.50 1003.46 1002.22 1000.90 999.86 998.94 998.06 997.26 996.34 995.66 995.30 995.26 995.42 995.42 996.06 996.74 997.30 997.02 996.86 997.30 997.54 998.02 998.46 998.90 999.30 999.58 999.82 1000.06 1000.22 1000.58 1000.98 1001.38 1001.54 1001.94 1002.50 1003.26 1003.74 1004.14 1004.34 1004.98 1005.02 1005.46 1005.90 1006.26 1006.78 1006.98 1007.14 1007.54 1007.62 1007.66 1007.66 1007.38 1007.14 1006.94 1007.02 1007.78 1008.50 1008.86 1009.70 1010.18 1010.42
1005.66 1004.86 1003.98 1002.98 1002.06 1001.06 1000.14 998.82 997.70 997.18 996.90 995.98 995.42 995.50 995.54 995.62 995.90 996.86 997.02 996.78 996.98 997.14 997.46 998.02 998.58 999.06 999.34 999.46 999.62 999.82 999.90 1000.50 1000.86 1001.10 1001.26 1001.66 1002.06 1002.66 1003.06 1003.54 1003.98 1004.46 1004.82 1005.14 1005.54 1005.82 1006.22 1006.58 1006.74 1007.06 1007.22 1007.38 1007.22 1007.14 1006.98 1006.78 1006.82 1007.14 1007.98 1008.62 1008.94 1009.62 1010.02
1005.82 1005.14 1004.50 1003.62 1002.62 1001.62 1000.46 999.10 998.06 997.26 996.90 996.42 995.78 995.78 995.82 995.86 995.94 996.26 996.54 996.82 996.86 997.02 997.38 998.06 998.62 999.06 999.22 999.42 999.46 999.62 999.74 1000.30 1000.58 1000.94 1001.22 1001.58 1001.94 1002.34 1002.74 1003.02 1003.42 1003.94 1004.46 1004.74 1005.10 1005.42 1005.74 1006.02 1006.30 1006.62 1006.74 1006.98 1006.86 1006.74 1006.74 1006.74 1006.74 1006.74 1007.34 1008.18 1008.78 1009.30 1009.74
1005.98 1005.06 1003.98 1003.46 1002.66 1001.70 1000.74 999.54 998.62 997.90 997.50 997.02 996.26 995.94 995.94 996.06 996.14 996.22 996.50 996.58 996.66 996.86 997.50 998.18 998.58 998.82 999.06 999.18 999.22 999.42 999.58 1000.02 1000.26 1000.74 1001.06 1001.38 1001.62 1002.18 1002.54 1002.66 1002.86 1003.42 1003.90 1004.18 1004.38 1004.86 1005.30 1005.50 1005.82 1006.06 1006.10 1006.30 1006.34 1006.34 1006.42 1006.62 1006.50 1006.42 1006.58 1007.38 1007.74 1008.30 1008.74
1006.10 1005.38 1004.62 1003.78 1002.74 1001.98 1001.46 1000.26 999.26 998.50 997.86 997.62 996.98 996.46 996.38 996.38 996.26 996.10 996.38 996.50 996.54 996.74 997.54 998.10 998.38 998.50 998.74 998.90 999.02 999.34 999.34 999.62 1000.02 1000.30 1000.66 1001.14 1001.34 1001.58 1001.82 1002.22 1002.46 1002.86 1003.10 1002.90 1003.02 1003.54 1004.22 1004.86 1005.02 1005.06 1005.06 1005.22 1005.62 1006.02 1006.34 1006.26 1006.34 1005.82 1005.34 1005.90 1006.50 1007.14 1007.86
1006.10 1005.42 1004.62 1003.82 1003.02 1002.22 1001.42 1000.38 999.58 999.14 998.62 997.94 997.18 997.02 996.70 996.46 996.22 996.06 996.02 996.30 996.50 996.70 997.46 997.94 998.26 998.42 998.70 998.70 998.90 999.02 999.30 999.58 999.82 1000.06 1000.34 1000.74 1001.26 1001.50 1002.42 1002.98 1002.82 1002.58 1002.74 1002.90 1002.82 1003.06 1003.26 1003.66 1004.22 1004.26 1004.14 1004.54 1004.54 1004.58 1005.42 1005.70 1005.30 1004.98 1005.26 1005.70 1006.22 1006.62 1006.94
1006.30 1005.54 1004.78 1003.98 1003.42 1002.46 1001.78 1000.78 999.94 999.34 998.90 998.54 997.78 997.58 997.46 997.22 996.86 996.58 996.22 996.22 996.34 996.70 997.26 997.66 998.10 998.30 998.46 998.58 998.66 998.74 999.10 999.46 999.78 999.98 1000.22 1000.42 1000.90 1001.22 1002.10 1002.82 1003.18 1003.58 1003.66 1003.30 1003.18 1003.22 1003.94 1004.30 1004.42 1004.46 1004.46 1004.46 1004.66 1004.98 1004.86 1004.74 1004.94 1005.10 1005.42 1005.70 1006.06 1006.46 1006.86
1006.54 1005.82 1005.02 1004.50 1004.06 1003.22 1002.10 1001.06 1000.50 1000.22 999.90 999.10 998.70 998.26 997.82 997.66 997.30 997.06 996.82 996.54 996.42 996.58 997.06 997.42 997.82 998.14 998.10 998.18 998.22 998.58 998.98 999.26 999.54 999.90 1000.26 1000.34 1000.54 1000.98 1001.62 1002.30 1003.30 1003.94 1004.18 1004.30 1004.02 1004.02 1004.22 1004.42 1004.62 1004.74 1004.82 1004.82 1004.78 1004.82 1005.26 1005.30 1005.10 1005.26 1005.62 1005.90 1006.10 1006.38 1006.74
Wind_Speed
17 15 14 13 15 18 19 20 21 20 21 20 21 22 22 20 19 19 19 20 22 21 20 20 20 18 19 16 16 15 14 14 12 12 12 11 11 11 11 11 11 10 10 10 9 8 8 8 8 8 8 8 8 7 6 6 6 5 5 4 4 4 4
18 17 18 15 14 17 19 20 20 19 20 20 20 22 21 22 20 20 20 21 22 23 22 20 20 19 19 17 15 16 16 15 14 12 11 11 10 10 11 11 10 10 9 9 8 8 8 9 8 8 8 8 8 8 8 7 6 6 5 6 5 5 5
18 18 17 18 17 16 18 19 20 20 20 20 20 21 22 21 21 21 20 21 22 22 21 21 21 19 19 17 17 17 17 15 15 15 15 14 15 14 12 11 10 10 11 10 8 8 8 9 9 8 9 8 8 8 8 8 7 7 6 6 6 6 5
16 16 18 18 18 18 19 20 22 21 20 22 22 23 22 21 21 20 20 21 23 22 23 21 21 20 19 18 18 18 17 17 16 15 15 14 14 13 12 11 10 10 10 11 10 9 9 9 10 9 10 8 8 8 8 8 8 8 7 7 6 6 6
20 21 16 16 19 17 17 18 20 21 22 23 23 22 21 21 21 20 20 21 23 24 24 24 20 19 17 18 15 15 17 18 16 15 14 13 13 13 13 14 12 12 10 11 10 9 8 9 10 10 10 9 9 8 8 9 8 8 7 7 7 7 7
18 18 18 18 17 17 18 20 22 24 23 23 23 23 22 23 21 23 22 21 21 21 20 21 21 19 19 19 17 16 16 16 16 15 14 14 14 14 14 14 13 13 13 11 11 11 11 11 11 11 11 10 10 10 10 9 9 9 8 7 7 7 7
18 18 17 17 17 18 18 17 21 22 22 21 21 20 20 21 23 22 21 21 22 23 24 24 22 21 19 18 17 18 19 19 18 18 15 16 15 14 14 13 13 13 12 11 11 11 12 12 11 11 11 11 10 11 9 9 9 8 7 7 7 7 6
16 16 18 19 19 19 18 20 20 21 20 18 19 21 22 21 21 22 23 22 22 22 22 23 22 20 19 18 17 20 19 20 18 17 15 16 16 15 14 14 13 13 12 13 12 12 13 13 12 12 12 12 12 10 11 9 9 9 8 8 9 9 7
17 15 17 19 19 19 19 19 19 20 22 21 22 21 22 21 21 22 23 22 22 23 24 23 22 20 18 18 18 20 19 19 18 17 18 18 16 17 16 15 14 13 13 13 13 13 12 13 13 12 12 12 11 11 11 10 11 10 10 9 9 9 9
13 14 16 17 17 16 17 16 15 14 19 19 18 19 22 21 21 21 21 21 21 23 24 23 21 21 20 19 20 21 19 19 18 20 20 19 16 18 18 16 14 14 14 14 13 13 12 13 13 13 12 12 12 12 12 12 11 11 11 11 11 10 10
9 14 14 16 15 17 16 17 15 14 17 17 18 20 20 20 20 21 21 21 22 22 23 21 20 21 21 21 22 22 20 21 20 20 21 20 17 19 19 17 16 14 15 15 14 14 13 12 13 12 13 13 14 13 13 13 13 12 12 12 11 11 11
3 8 11 13 14 13 15 13 18 16 16 16 18 18 18 18 20 20 20 21 20 20 20 21 20 21 21 21 21 21 22 21 20 21 22 21 19 20 19 18 17 16 15 15 15 15 14 14 13 13 14 14 14 13 13 13 13 12 12 13 12 11 11
4 7 3 5 5 5 6 8 15 16 16 17 18 18 17 19 19 19 18 20 20 19 19 20 19 20 21 21 22 21 21 21 21 20 20 19 19 17 17 18 18 17 16 15 16 16 15 15 15 13 14 14 13 14 14 13 13 12 12 12 12 12 12
1 2 5 4 6 7 9 9 12 14 15 17 17 18 17 18 19 18 18 19 19 19 19 18 19 20 20 20 20 20 21 21 20 19 18 18 16 16 17 18 17 16 15 15 16 16 16 16 16 14 14 14 14 13 13 13 13 13 12 12 12 12 12
3 4 9 8 5 7 9 11 10 14 16 17 18 19 19 17 17 16 16 17 18 19 20 18 18 19 20 20 19 19 19 18 18 17 17 17 16 16 16 16 16 15 15 15 15 15 16 16 16 15 15 14 14 14 13 13 13 12 12 13 13 12 13
6 9 7 3 7 8 9 8 11 12 14 15 16 17 18 16 16 18 19 19 20 19 18 17 18 18 19 20 18 17 17 17 16 16 17 17 17 16 16 16 16 17 17 16 16 14 14 14 14 16 15 15 15 14 13 12 11 12 16 14 12 13 11
8 8 4 5 5 9 4 4 8 11 13 15 16 16 16 15 16 18 19 19 19 19 18 19 17 18 19 18 17 16 17 16 16 16 16 16 17 17 16 16 15 15 14 14 15 14 13 13 16 15 15 16 15 15 14 12 12 16 17 16 15 12 12
12 9 7 4 6 8 7 7 8 10 12 15 17 17 16 14 16 17 19 19 20 20 19 19 19 19 17 17 16 16 17 17 17 17 17 16 16 17 16 16 15 13 14 15 16 13 14 15 15 14 15 15 15 15 14 13 13 17 18 17 16 13 11
11 8 6 8 9 9 9 8 11 12 9 13 14 16 18 18 18 17 18 18 18 18 19 19 20 18 17 17 17 17 17 16 17 17 17 17 17 16 15 15 15 15 16 17 16 15 14 14 15 15 14 14 14 15 15 14 14 17 19 18 17 17 12
10 10 11 11 11 11 10 7 9 11 12 10 13 17 17 17 18 18 18 17 16 17 16 17 18 18 18 17 17 17 17 17 17 17 17 17 16 16 16 17 16 17 16 15 14 14 15 16 15 14 14 14 13 13 12 12 13 19 19 19 18 18 13
11 12 12 10 11 12 11 11 12 14 13 13 14 15 16 17 18 17 17 17 19 19 17 17 17 16 17 17 17 17 18 19 18 17 17 17 17 16 17 17 16 17 16 16 16 15 14 15 15 14 14 15 15 13 13 11 16 19 20 19 20 18 14
14 14 14 13 14 14 14 13 13 14 13 12 12 14 15 17 18 18 19 19 19 18 18 17 16 17 18 18 18 19 19 19 19 18 17 17 17 17 17 17 16 16 14 13 15 14 13 13 14 15 15 15 15 15 14 10 18 19 21 20 20 18 11
15 15 15 15 16 17 17 16 15 15 14 13 13 14 15 17 18 19 19 20 19 19 20 19 18 18 19 19 20 20 20 19 19 18 18 18 18 18 17 16 16 15 13 14 14 15 14 14 14 13 14 15 14 15 12 12 15 19 20 20 20 14 10
17 17 17 17 17 18 19 17 16 15 14 14 13 14 15 16 18 19 19 20 20 21 21 21 20 19 19 20 21 20 19 19 19 18 18 18 18 18 17 16 15 15 14 15 14 15 15 14 13 13 14 15 16 16 14 13 13 21 20 20 20 17 13
18 19 18 18 18 20 21 18 16 17 17 15 14 13 15 17 19 20 19 20 21 21 21 21 20 20 21 21 20 19 19 18 18 18 19 18 18 17 17 17 15 14 14 14 14 14 13 13 13 13 13 15 16 14 16 14 13 21 21 21 22 18 12
21 21 21 20 20 20 21 19 17 17 17 15 13 13 15 17 18 19 19 20 20 21 21 21 20 20 19 18 18 17 17 17 18 18 18 18 17 16 15 14 14 15 15 14 13 13 13 13 12 14 13 14 15 13 16 15 9 18 22 22 22 22 14
19 20 20 21 20 22 20 18 16 16 16 12 11 12 14 16 17 16 15 17 17 19 21 19 16 17 17 17 18 18 18 17 18 19 18 17 16 15 15 14 14 14 14 14 13 12 12 13 12 13 13 13 14 14 15 15 12 14 22 22 23 23 18
22 23 22 20 21 20 19 18 16 16 16 12 12 12 14 13 13 14 14 15 18 18 18 15 16 17 17 18 18 18 18 18 17 17 15 15 15 14 14 13 13 13 13 12 11 12 12 11 11 12 12 12 13 13 14 14 17 11 19 22 23 23 23
22 22 22 23 21 22 20 17 16 16 14 12 12 11 13 15 13 13 14 16 17 16 15 16 17 18 17 17 18 17 18 17 18 16 14 14 15 15 14 13 13 12 12 12 12 12 13 12 12 12 12 11 11 12 12 10 11 16 15 20 22 23 22
21 21 22 22 20 20 20 17 15 15 13 11 10 9 11 13 11 12 14 17 14 13 13 14 16 16 17 16 17 17 16 16 17 16 14 15 14 15 14 14 13 12 11 12 11 11 12 11 12 11 12 12 12 12 12 10 8 14 20 18 21 21 23
20 20 19 19 21 20 19 17 16 14 12 11 9 9 10 10 11 12 14 13 12 12 13 15 16 16 16 17 16 16 16 15 15 15 15 15 15 15 14 14 14 12 12 12 12 11 11 12 11 12 12 12 12 11 11 11 12 8 14 22 21 21 22
19 19 19 20 21 22 21 19 15 11 12 11 9 9 9 9 12 13 12 12 12 13 13 14 15 15 15 15 15 16 16 16 15 16 15 15 14 14 13 14 14 13 12 13 12 12 12 12 11 12 11 11 11 11 11 10 10 10 11 14 19 19 22
19 18 16 19 20 21 18 16 11 9 8 8 9 9 9 10 11 11 10 12 13 14 13 14 15 14 14 14 15 15 14 16 14 14 14 14 13 12 12 12 13 13 13 13 13 13 12 12 12 12 12 12 12 11 11 11 11 10 9 10 8 9 11
20 19 19 20 18 19 18 14 10 5 6 6 5 6 8 9 11 11 13 13 15 14 14 14 16 15 14 15 14 13 14 14 14 14 13 14 13 13 13 13 13 13 13 14 13 13 13 12 12 13 12 12 11 11 11 11 11 11 11 12 12 11 10
17 15 17 18 18 18 15 13 11 8 3 2 3 6 8 10 11 11 13 13 14 13 15 14 14 13 14 13 12 12 11 12 13 13 12 13 12 11 11 11 13 12 11 12 12 12 12 12 11 12 11 12 11 11 12 11 11 12 11 12 14 14 12
15 16 17 16 15 16 15 13 11 10 11 5 2 3 7 8 9 9 11 12 12 12 14 14 13 13 13 12 11 12 12 11 12 12 11 12 12 12 6 13 14 5 6 10 13 11 7 3 7 6 10 11 10 8 10 12 9 7 10 18 20 17 17
17 17 16 17 18 19 17 12 12 13 13 12 5 2 2 2 1 5 9 10 11 12 13 13 12 11 11 12 11 12 11 11 11 11 10 11 11 11 9 7 7 13 14 11 6 9 14 13 11 11 11 3 5 6 10 12 13 11 15 19 20 18 17
16 14 13 13 14 17 17 13 14 14 13 10 10 7 6 3 3 2 5 6 8 11 11 13 11 11 11 11 10 10 10 10 10 11 11 10 11 11 10 10 8 5 12 14 10 11 12 12 12 11 9 10 7 5 4 6 11 13 14 14 17 18 17
Wind_Direction
202 194 184 197 196 189 186 187 187 187 187 186 188 190 189 188 187 183 183 181 182 180 180 178 179 179 182 184 185 185 187 187 189 192 193 196 198 199 199 199 200 201 203 204 202 206 199 206 196 208 192 193 202 197 197 195 193 196 196 196 209 223 199
198 200 182 186 202 201 189 186 186 188 189 188 188 190 191 188 186 186 184 182 182 180 180 179 178 180 181 181 182 182 185 188 189 189 192 193 195 201 201 202 203 198 205 209 196 199 201 194 198 199 202 192 200 196 195 196 198 201 197 194 206 210 209
191 194 188 187 187 215 193 185 187 190 189 189 189 191 193 189 187 186 183 182 182 181 180 179 180 178 179 178 180 182 184 186 188 190 192 193 195 198 199 202 202 200 201 205 206 194 196 195 196 198 201 200 197 197 198 196 200 202 204 199 204 204 215
192 194 190 185 190 203 197 187 186 190 191 191 192 193 193 190 189 187 186 183 182 181 181 181 179 178 178 179 180 181 185 187 191 194 195 195 192 196 196 198 201 203 197 202 203 201 192 195 194 198 198 199 201 200 197 203 202 201 203 203 210 207 209
190 194 192 190 194 190 201 190 188 190 192 193 192 191 192 190 188 188 188 186 185 184 183 181 181 180 179 179 180 182 185 185 188 192 196 197 191 192 196 198 196 203 199 198 202 195 193 188 196 196 195 200 200 198 201 200 204 198 204 205 214 210 206
200 196 193 196 191 193 195 195 190 190 192 192 191 190 192 191 190 191 190 187 188 186 183 182 182 179 180 181 181 181 181 183 187 190 193 193 191 192 194 197 196 198 200 199 196 195 191 194 197 195 197 198 204 202 200 201 202 203 203 207 214 219 219
203 200 196 197 190 193 196 200 194 192 192 192 189 188 191 192 193 192 190 189 189 185 185 184 184 182 181 179 180 176 180 182 186 189 191 193 191 191 192 194 198 196 201 194 200 194 192 196 198 194 197 203 204 208 203 199 201 200 203 207 211 220 225
207 201 198 198 196 191 188 205 204 191 189 189 189 188 191 192 192 192 193 191 189 187 188 186 184 183 180 180 179 179 181 183 184 186 189 192 189 193 191 194 196 195 197 196 196 196 194 195 199 197 198 200 201 206 207 199 199 202 204 207 209 213 211
201 204 199 199 201 189 192 199 202 190 184 188 190 188 189 192 193 194 194 192 189 189 189 187 185 181 179 179 179 181 181 182 183 184 190 191 189 193 192 192 194 194 194 198 194 196 200 194 201 195 198 200 197 198 203 204 200 204 206 206 208 212 221
198 200 204 201 200 201 194 201 203 191 182 187 189 188 189 192 192 193 195 194 192 192 189 187 184 181 180 180 181 180 180 183 183 186 188 191 192 194 195 193 192 193 194 198 199 193 199 199 199 195 195 199 197 195 199 199 203 202 204 207 208 211 215
200 200 197 198 200 206 206 182 178 200 187 187 189 190 189 191 192 192 195 195 194 193 189 188 184 182 181 182 181 181 182 185 185 186 189 191 193 194 195 195 192 190 195 196 203 196 193 199 199 196 194 198 197 196 196 198 199 201 204 204 207 210 213
74 326 164 187 196 212 218 186 171 181 185 186 190 190 187 191 194 194 193 197 196 193 189 189 186 183 181 183 183 183 184 184 186 188 190 192 194 194 195 196 194 189 194 196 199 200 193 195 198 197 195 198 197 197 195 197 198 199 205 206 205 208 213
317 150 110 163 195 227 237 179 167 179 181 186 191 191 190 193 195 197 193 194 196 194 192 189 187 183 182 185 185 184 186 186 189 189 191 191 194 194 194 197 196 194 192 195 198 200 199 193 197 197 197 197 199 198 196 197 199 198 201 208 209 205 209
339 122 167 186 207 213 206 198 173 178 183 188 191 194 195 193 195 196 193 193 195 195 193 190 188 185 183 185 186 185 186 187 187 189 189 190 192 195 194 196 198 195 191 192 197 200 201 196 193 196 197 196 199 199 197 196 200 199 200 203 207 207 205
319 183 170 178 179 187 199 197 189 182 189 192 194 196 196 194 194 195 194 194 194 197 196 189 188 186 185 186 188 185 185 184 185 187 187 189 191 197 196 195 197 194 191 191 198 199 201 203 194 194 199 197 198 199 200 198 200 201 199 199 202 207 207
339 334 356 43 158 180 184 203 195 191 192 194 199 199 200 195 193 194 195 195 194 196 194 186 188 188 186 188 189 183 182 181 182 183 185 187 189 194 196 197 197 196 196 193 199 199 201 203 201 195 198 200 199 201 202 203 201 197 195 196 199 203 207
325 337 342 300 353 336 6 215 209 202 196 198 202 202 202 199 196 196 197 195 195 195 193 189 187 189 188 188 187 181 179 180 181 180 183 185 187 189 193 196 197 197 193 194 195 200 198 203 204 204 199 201 201 201 205 205 206 185 187 192 201 202 205
302 304 288 308 337 317 309 292 262 211 213 208 205 205 204 202 198 197 199 195 197 194 193 190 186 189 188 185 184 182 181 181 180 180 181 181 184 185 189 193 197 198 193 195 194 197 200 201 204 206 205 203 203 204 206 209 201 174 181 187 194 205 206
300 290 341 342 314 319 317 325 325 313 243 219 217 211 208 203 201 199 200 198 195 193 193 191 187 186 185 185 183 182 181 181 181 180 179 180 181 182 185 189 193 196 196 197 195 195 200 200 202 205 209 208 204 207 206 213 185 171 178 183 190 200 215
348 341 339 333 323 313 323 320 286 274 286 269 224 220 216 208 205 201 199 198 191 194 195 191 188 185 185 184 183 181 180 181 181 181 180 178 179 179 184 187 191 195 196 195 195 196 199 202 202 205 207 212 213 210 212 215 162 172 176 182 188 195 205
342 334 329 315 306 309 313 302 285 276 265 265 264 237 215 212 208 201 196 195 193 193 193 191 188 181 183 184 182 180 179 183 186 182 179 178 178 178 182 185 188 194 195 197 197 196 197 202 202 204 206 209 214 215 213 218 158 172 175 181 187 192 199
334 330 324 319 310 299 294 292 295 292 286 279 263 262 227 211 207 202 197 196 193 190 191 190 187 182 182 184 183 182 181 181 185 182 178 179 180 180 182 184 186 190 194 198 199 199 197 202 206 202 205 207 211 216 214 203 161 173 175 178 187 185 194
333 326 320 315 308 304 300 294 287 284 277 263 253 252 242 213 203 201 196 195 192 189 191 189 188 185 183 186 185 184 182 181 182 180 179 180 180 182 182 182 184 188 191 197 200 199 199 201 204 204 206 207 208 215 214 214 170 171 177 177 181 174 198
331 327 322 317 310 302 297 295 294 290 284 272 253 245 244 219 201 196 195 194 190 187 189 190 189 186 184 187 186 184 183 183 182 181 180 180 182 183 183 182 183 186 190 196 202 204 202 204 206 206 208 208 209 208 211 218 169 174 174 178 175 180 195
330 323 320 315 309 302 298 300 304 302 293 278 259 240 236 226 201 194 194 194 191 187 188 191 188 186 186 187 186 183 183 183 183 182 181 182 184 185 183 183 182 186 188 197 203 209 207 205 207 209 208 211 213 204 209 219 181 174 173 178 179 184 198
328 325 320 316 309 305 306 307 303 293 282 266 253 244 234 222 204 195 192 193 192 188 190 190 188 187 184 182 182 184 184 184 183 183 183 183 184 185 184 183 183 186 190 195 201 205 213 209 210 212 214 214 216 209 208 217 195 174 176 179 180 186 192
324 320 316 313 310 310 307 300 294 290 282 272 256 239 232 217 205 191 188 191 195 191 192 190 181 179 179 181 184 185 185 184 183 184 185 183 183 183 184 186 187 187 189 194 199 202 208 213 211 214 217 219 217 218 213 214 205 174 180 179 180 188 191
327 324 321 317 311 308 308 302 293 289 281 263 253 232 223 219 203 188 184 188 197 197 191 178 175 178 178 181 185 184 184 184 181 184 184 183 181 180 184 186 188 187 186 193 194 198 202 208 215 217 218 221 218 220 220 208 206 169 185 180 183 186 194
328 324 320 317 317 315 309 305 296 285 274 262 249 221 219 220 198 181 180 191 196 195 185 179 177 176 177 179 183 183 182 181 178 180 183 182 180 180 181 181 186 185 184 189 191 195 199 201 209 214 218 220 218 220 220 214 200 158 174 186 185 188 194
324 323 321 315 314 312 310 307 292 280 272 263 246 213 218 219 192 181 185 193 189 191 182 175 175 175 177 178 180 179 180 179 178 180 182 177 175 179 177 179 183 182 183 187 188 190 194 199 203 210 216 220 219 221 221 214 213 162 168 178 189 191 193
319 315 310 311 313 315 314 306 292 285 272 257 233 208 214 211 194 179 186 185 184 187 180 175 175 177 177 177 178 176 178 176 176 179 179 175 175 176 178 179 179 182 184 184 188 191 194 197 198 205 212 217 220 221 220 214 213 182 169 174 186 192 196
317 319 322 327 325 324 318 311 292 271 264 245 220 202 210 205 200 192 186 182 184 187 180 176 176 179 175 175 176 175 176 174 175 178 178 176 177 178 180 179 180 181 182 184 189 193 194 196 199 205 208 215 217 219 218 215 220 199 170 179 183 190 197
322 321 318 322 317 313 318 318 296 258 256 239 199 200 203 207 200 191 183 186 184 187 176 176 177 177 173 175 175 175 177 174 176 174 176 175 177 178 181 180 183 182 183 188 191 193 196 198 203 207 209 211 217 215 214 217 218 219 174 173 169 187 192
324 319 328 325 314 319 323 332 325 310 281 258 228 203 200 202 201 192 195 190 186 183 175 178 183 178 176 177 177 176 177 176 169 170 175 178 180 179 183 186 187 188 188 192 193 194 195 200 203 208 210 212 213 214 213 215 216 217 202 175 178 182 178
314 320 325 320 324 324 320 330 356 348 317 290 272 231 212 207 206 200 195 191 189 179 180 185 177 176 175 176 175 176 174 175 173 179 177 179 182 182 185 193 194 189 195 196 199 196 195 196 202 206 210 211 208 208 213 210 218 213 211 174 171 175 184
318 327 325 323 322 321 320 341 4 15 18 343 260 255 213 200 199 191 191 188 193 183 183 181 177 175 175 177 176 174 173 178 177 182 181 179 181 178 117 41 49 40 192 197 185 190 196 149 190 200 210 210 210 209 214 221 220 195 190 150 167 177 175
330 330 328 331 330 328 328 342 9 20 30 16 353 130 93 89 115 188 187 185 188 185 184 182 179 174 177 178 179 174 173 178 179 181 184 183 178 183 150 139 75 46 38 35 62 122 100 89 81 60 40 45 219 56 51 103 110 144 153 154 167 170 165
324 321 325 329 329 324 328 357 13 13 6 21 27 41 60 85 124 136 186 191 190 185 185 185 182 180 178 179 178 159 167 180 179 179 184 189 183 185 172 167 151 101 38 37 55 76 92 96 88 80 71 54 51 98 82 67 112 129 141 148 155 158 156